Time,TemperatureF,DewpointF,PressureIn,WindDirection,WindDirectionDegrees,WindSpeedMPH,WindSpeedGustMPH,Humidity,HourlyPrecipIn,Conditions,Clouds,dailyrainin,SoftwareType,DateUTC
2013-01-23 00:05:00,13.1,8.4,30.38,South,188,0.0,0.0,81,0.00,,,0.00,Wunderground v.1.15,2013-01-23 06:05:00,
2013-01-23 00:10:00,13.0,8.3,30.38,South,188,0.0,0.0,81,0.00,,,0.00,Wunderground v.1.15,2013-01-23 06:10:00,
2013-01-23 00:16:00,12.8,8.1,30.38,South,188,0.0,0.0,81,0.00,,,0.00,Wunderground v.1.15,2013-01-23 06:16:00,
2013-01-23 00:21:00,12.7,8.0,30.38,South,188,0.0,1.0,81,0.00,,,0.00,Wunderground v.1.15,2013-01-23 06:21:00,
2013-01-23 00:27:00,12.6,8.1,30.38,South,188,1.0,2.0,82,0.00,,,0.00,Wunderground v.1.15,2013-01-23 06:27:00,
2013-01-23 00:33:00,12.4,8.0,30.39,South,188,2.0,2.0,82,0.00,,,0.00,Wunderground v.1.15,2013-01-23 06:33:00,
2013-01-23 00:38:00,12.4,8.0,30.39,South,188,2.0,2.0,82,0.00,,,0.00,Wunderground v.1.15,2013-01-23 06:38:00,
2013-01-23 00:44:00,12.4,8.0,30.38,South,188,1.0,2.0,82,0.00,,,0.00,Wunderground v.1.15,2013-01-23 06:44:00,
2013-01-23 00:49:00,12.5,8.0,30.38,South,188,0.0,2.0,82,0.00,,,0.00,Wunderground v.1.15,2013-01-23 06:49:00,
2013-01-23 00:55:00,12.5,8.0,30.38,South,188,1.0,2.0,82,0.00,,,0.00,Wunderground v.1.15,2013-01-23 06:55:00,
2013-01-23 01:01:00,12.6,8.1,30.38,South,188,1.0,2.0,82,0.00,,,0.00,Wunderground v.1.15,2013-01-23 07:01:00,
2013-01-23 01:06:00,12.6,8.1,30.38,South,188,1.0,2.0,82,0.00,,,0.00,Wunderground v.1.15,2013-01-23 07:06:00,
2013-01-23 01:12:00,12.6,8.1,30.37,South,188,1.0,2.0,82,0.00,,,0.00,Wunderground v.1.15,2013-01-23 07:12:00,
2013-01-23 01:17:00,12.5,8.0,30.38,South,188,1.0,2.0,82,0.00,,,0.00,Wunderground v.1.15,2013-01-23 07:17:00,
2013-01-23 01:23:00,12.4,8.0,30.37,South,188,1.0,2.0,82,0.00,,,0.00,Wunderground v.1.15,2013-01-23 07:23:00,
2013-01-23 01:28:00,12.2,7.8,30.37,South,188,1.0,2.0,82,0.00,,,0.00,Wunderground v.1.15,2013-01-23 07:28:00,
2013-01-23 01:33:00,12.2,8.0,30.37,South,188,0.0,2.0,83,0.00,,,0.00,Wunderground v.1.15,2013-01-23 07:33:00,
2013-01-23 01:38:00,12.1,7.9,30.37,South,188,0.0,2.0,83,0.00,,,0.00,Wunderground v.1.15,2013-01-23 07:38:00,
2013-01-23 01:43:00,12.1,7.9,30.37,South,188,1.0,2.0,83,0.00,,,0.00,Wunderground v.1.15,2013-01-23 07:43:00,
2013-01-23 01:49:00,12.1,7.9,30.36,South,188,1.0,2.0,83,0.00,,,0.00,Wunderground v.1.15,2013-01-23 07:49:00,
2013-01-23 01:55:00,11.7,7.5,30.36,South,188,2.0,2.0,83,0.00,,,0.00,Wunderground v.1.15,2013-01-23 07:55:00,
2013-01-23 02:01:00,11.6,7.7,30.37,South,188,1.0,2.0,84,0.00,,,0.00,Wunderground v.1.15,2013-01-23 08:01:00,
2013-01-23 02:07:00,11.6,7.7,30.37,South,188,0.0,2.0,84,0.00,,,0.00,Wunderground v.1.15,2013-01-23 08:07:00,
2013-01-23 02:13:00,11.6,7.7,30.36,South,188,0.0,2.0,84,0.00,,,0.00,Wunderground v.1.15,2013-01-23 08:13:00,
2013-01-23 02:19:00,11.6,7.7,30.36,South,188,0.0,2.0,84,0.00,,,0.00,Wunderground v.1.15,2013-01-23 08:19:00,
2013-01-23 02:25:00,11.5,7.6,30.36,South,188,0.0,2.0,84,0.00,,,0.00,Wunderground v.1.15,2013-01-23 08:25:00,
2013-01-23 02:30:00,11.4,7.5,30.37,South,188,0.0,2.0,84,0.00,,,0.00,Wunderground v.1.15,2013-01-23 08:30:00,
2013-01-23 02:36:00,11.3,7.4,30.36,South,188,0.0,2.0,84,0.00,,,0.00,Wunderground v.1.15,2013-01-23 08:36:00,
2013-01-23 02:42:00,11.3,7.7,30.36,South,188,0.0,2.0,85,0.00,,,0.00,Wunderground v.1.15,2013-01-23 08:42:00,
2013-01-23 02:47:00,11.2,7.6,30.35,South,188,0.0,2.0,85,0.00,,,0.00,Wunderground v.1.15,2013-01-23 08:47:00,
2013-01-23 02:53:00,11.2,7.6,30.35,South,188,0.0,2.0,85,0.00,,,0.00,Wunderground v.1.15,2013-01-23 08:53:00,
2013-01-23 02:58:00,11.2,7.6,30.34,South,188,0.0,3.0,85,0.00,,,0.00,Wunderground v.1.15,2013-01-23 08:58:00,
2013-01-23 03:05:00,11.0,7.4,30.34,South,188,1.0,2.0,85,0.00,,,0.00,Wunderground v.1.15,2013-01-23 09:05:00,
2013-01-23 03:11:00,11.0,7.4,30.33,South,188,1.0,2.0,85,0.00,,,0.00,Wunderground v.1.15,2013-01-23 09:11:00,
2013-01-23 03:16:00,10.9,7.3,30.33,South,188,1.0,2.0,85,0.00,,,0.00,Wunderground v.1.15,2013-01-23 09:16:00,
2013-01-23 03:22:00,10.9,7.3,30.34,South,188,1.0,2.0,85,0.00,,,0.00,Wunderground v.1.15,2013-01-23 09:22:00,
2013-01-23 03:27:00,10.9,7.3,30.34,South,188,1.0,2.0,85,0.00,,,0.00,Wunderground v.1.15,2013-01-23 09:27:00,
2013-01-23 03:33:00,11.0,7.6,30.34,South,188,0.0,2.0,86,0.00,,,0.00,Wunderground v.1.15,2013-01-23 09:33:00,
2013-01-23 03:39:00,11.0,7.6,30.34,South,188,0.0,2.0,86,0.00,,,0.00,Wunderground v.1.15,2013-01-23 09:39:00,
2013-01-23 03:44:00,11.1,7.7,30.33,South,188,0.0,2.0,86,0.00,,,0.00,Wunderground v.1.15,2013-01-23 09:44:00,
2013-01-23 03:50:00,11.1,7.7,30.34,South,188,0.0,2.0,86,0.00,,,0.00,Wunderground v.1.15,2013-01-23 09:50:00,
2013-01-23 03:55:00,11.1,7.7,30.33,South,188,0.0,2.0,86,0.00,,,0.00,Wunderground v.1.15,2013-01-23 09:55:00,
2013-01-23 04:01:00,11.0,7.6,30.34,South,188,0.0,2.0,86,0.00,,,0.00,Wunderground v.1.15,2013-01-23 10:01:00,
2013-01-23 04:06:00,11.0,7.6,30.33,South,188,0.0,2.0,86,0.00,,,0.00,Wunderground v.1.15,2013-01-23 10:06:00,
2013-01-23 04:11:00,10.9,7.5,30.33,South,188,0.0,2.0,86,0.00,,,0.00,Wunderground v.1.15,2013-01-23 10:11:00,
2013-01-23 04:17:00,10.9,7.5,30.33,South,188,0.0,2.0,86,0.00,,,0.00,Wunderground v.1.15,2013-01-23 10:17:00,
2013-01-23 04:22:00,11.0,7.6,30.32,South,188,0.0,2.0,86,0.00,,,0.00,Wunderground v.1.15,2013-01-23 10:22:00,
2013-01-23 04:28:00,11.0,7.6,30.33,South,188,0.0,2.0,86,0.00,,,0.00,Wunderground v.1.15,2013-01-23 10:28:00,
2013-01-23 04:33:00,10.9,7.5,30.32,South,188,1.0,2.0,86,0.00,,,0.00,Wunderground v.1.15,2013-01-23 10:33:00,
2013-01-23 04:39:00,10.9,7.5,30.32,South,188,1.0,2.0,86,0.00,,,0.00,Wunderground v.1.15,2013-01-23 10:39:00,
2013-01-23 04:45:00,11.0,7.6,30.33,South,188,1.0,2.0,86,0.00,,,0.00,Wunderground v.1.15,2013-01-23 10:45:00,
2013-01-23 04:51:00,11.1,7.7,30.32,South,188,1.0,2.0,86,0.00,,,0.00,Wunderground v.1.15,2013-01-23 10:51:00,
2013-01-23 04:57:00,11.1,7.7,30.32,South,188,1.0,2.0,86,0.00,,,0.00,Wunderground v.1.15,2013-01-23 10:57:00,
2013-01-23 05:02:00,11.1,7.7,30.32,South,188,1.0,2.0,86,0.00,,,0.00,Wunderground v.1.15,2013-01-23 11:02:00,
2013-01-23 05:09:00,11.1,7.7,30.32,South,188,1.0,2.0,86,0.00,,,0.00,Wunderground v.1.15,2013-01-23 11:09:00,
2013-01-23 05:15:00,10.9,7.5,30.31,South,188,0.0,2.0,86,0.00,,,0.00,Wunderground v.1.15,2013-01-23 11:15:00,
2013-01-23 05:21:00,10.7,7.3,30.32,South,188,0.0,2.0,86,0.00,,,0.00,Wunderground v.1.15,2013-01-23 11:21:00,
2013-01-23 05:26:00,10.6,7.2,30.32,South,188,0.0,2.0,86,0.00,,,0.00,Wunderground v.1.15,2013-01-23 11:26:00,
2013-01-23 05:31:00,10.5,7.1,30.32,South,188,0.0,2.0,86,0.00,,,0.00,Wunderground v.1.15,2013-01-23 11:31:00,
2013-01-23 05:37:00,10.6,7.5,30.32,South,188,0.0,2.0,87,0.00,,,0.00,Wunderground v.1.15,2013-01-23 11:37:00,
2013-01-23 05:42:00,10.6,7.5,30.32,South,188,0.0,2.0,87,0.00,,,0.00,Wunderground v.1.15,2013-01-23 11:42:00,
2013-01-23 05:48:00,10.5,7.4,30.32,South,188,0.0,2.0,87,0.00,,,0.00,Wunderground v.1.15,2013-01-23 11:48:00,
2013-01-23 05:53:00,10.5,7.4,30.32,South,188,0.0,2.0,87,0.00,,,0.00,Wunderground v.1.15,2013-01-23 11:53:00,
2013-01-23 05:59:00,10.4,7.3,30.32,South,188,0.0,2.0,87,0.00,,,0.00,Wunderground v.1.15,2013-01-23 11:59:00,
2013-01-23 06:04:00,10.4,7.3,30.32,South,188,0.0,2.0,87,0.00,,,0.00,Wunderground v.1.15,2013-01-23 12:04:00,
2013-01-23 06:12:00,10.5,7.4,30.32,South,188,0.0,2.0,87,0.00,,,0.00,Wunderground v.1.15,2013-01-23 12:12:00,
2013-01-23 06:18:00,10.5,7.4,30.32,South,188,0.0,2.0,87,0.00,,,0.00,Wunderground v.1.15,2013-01-23 12:18:00,
2013-01-23 06:23:00,10.4,7.3,30.32,South,188,0.0,2.0,87,0.00,,,0.00,Wunderground v.1.15,2013-01-23 12:23:00,
2013-01-23 06:28:00,10.4,7.3,30.32,South,188,0.0,2.0,87,0.00,,,0.00,Wunderground v.1.15,2013-01-23 12:28:00,
2013-01-23 06:34:00,10.3,7.2,30.32,South,188,0.0,2.0,87,0.00,,,0.00,Wunderground v.1.15,2013-01-23 12:34:00,
2013-01-23 06:40:00,10.3,7.2,30.31,South,188,0.0,2.0,87,0.00,,,0.00,Wunderground v.1.15,2013-01-23 12:40:00,
2013-01-23 06:46:00,10.2,7.1,30.31,South,188,1.0,2.0,87,0.00,,,0.00,Wunderground v.1.15,2013-01-23 12:46:00,
2013-01-23 06:52:00,10.2,7.1,30.31,South,189,1.0,2.0,87,0.00,,,0.00,Wunderground v.1.15,2013-01-23 12:52:00,
2013-01-23 06:57:00,10.3,7.2,30.31,South,189,2.0,3.0,87,0.00,,,0.00,Wunderground v.1.15,2013-01-23 12:57:00,
2013-01-23 07:03:00,10.3,7.2,30.31,South,189,1.0,2.0,87,0.00,,,0.00,Wunderground v.1.15,2013-01-23 13:03:00,
2013-01-23 07:08:00,10.3,7.2,30.30,South,189,1.0,4.0,87,0.00,,,0.00,Wunderground v.1.15,2013-01-23 13:08:00,
2013-01-23 07:14:00,10.3,7.2,30.30,South,189,2.0,2.0,87,0.00,,,0.00,Wunderground v.1.15,2013-01-23 13:14:00,
2013-01-23 07:19:00,10.2,7.1,30.30,South,189,1.0,2.0,87,0.00,,,0.00,Wunderground v.1.15,2013-01-23 13:19:00,
2013-01-23 07:25:00,10.3,7.2,30.30,South,189,1.0,2.0,87,0.00,,,0.00,Wunderground v.1.15,2013-01-23 13:25:00,
2013-01-23 07:31:00,10.4,7.6,30.29,South,189,1.0,2.0,88,0.00,,,0.00,Wunderground v.1.15,2013-01-23 13:31:00,
2013-01-23 07:37:00,10.8,7.9,30.29,SSW,198,2.0,4.0,88,0.00,,,0.00,Wunderground v.1.15,2013-01-23 13:37:00,
2013-01-23 07:43:00,11.0,8.1,30.29,SSW,198,3.0,4.0,88,0.00,,,0.00,Wunderground v.1.15,2013-01-23 13:43:00,
2013-01-23 07:49:00,11.4,8.5,30.28,SW,235,3.0,6.0,88,0.00,,,0.00,Wunderground v.1.15,2013-01-23 13:49:00,
2013-01-23 07:56:00,12.1,9.2,30.28,WSW,242,5.0,6.0,88,0.00,,,0.00,Wunderground v.1.15,2013-01-23 13:56:00,
2013-01-23 08:02:00,12.6,9.7,30.28,SW,235,5.0,7.0,88,0.00,,,0.00,Wunderground v.1.15,2013-01-23 14:02:00,
2013-01-23 08:08:00,13.1,10.0,30.29,SW,236,5.0,7.0,87,0.00,,,0.00,Wunderground v.1.15,2013-01-23 14:08:00,
2013-01-23 08:13:00,13.5,10.4,30.29,WSW,239,5.0,5.0,87,0.00,,,0.00,Wunderground v.1.15,2013-01-23 14:13:00,
2013-01-23 08:19:00,13.8,10.4,30.28,WSW,240,5.0,7.0,86,0.00,,,0.00,Wunderground v.1.15,2013-01-23 14:19:00,
2013-01-23 08:25:00,14.2,10.8,30.28,WSW,246,6.0,7.0,86,0.00,,,0.00,Wunderground v.1.15,2013-01-23 14:25:00,
2013-01-23 08:31:00,14.4,11.0,30.28,SW,227,6.0,7.0,86,0.00,,,0.00,Wunderground v.1.15,2013-01-23 14:31:00,
2013-01-23 08:36:00,14.5,11.1,30.28,SW,225,6.0,8.0,86,0.00,,,0.00,Wunderground v.1.15,2013-01-23 14:36:00,
2013-01-23 08:42:00,14.9,11.2,30.28,West,266,6.0,7.0,85,0.00,,,0.00,Wunderground v.1.15,2013-01-23 14:42:00,
2013-01-23 08:48:00,15.4,11.7,30.28,WSW,240,6.0,7.0,85,0.00,,,0.00,Wunderground v.1.15,2013-01-23 14:48:00,
2013-01-23 08:54:00,15.8,12.1,30.29,West,261,6.0,6.0,85,0.00,,,0.00,Wunderground v.1.15,2013-01-23 14:54:00,
2013-01-23 08:59:00,16.3,12.6,30.29,West,262,5.0,6.0,85,0.00,,,0.00,Wunderground v.1.15,2013-01-23 14:59:00,
2013-01-23 09:05:00,16.6,12.6,30.29,West,263,6.0,7.0,84,0.00,,,0.00,Wunderground v.1.15,2013-01-23 15:05:00,
2013-01-23 09:10:00,16.7,12.7,30.28,WSW,257,6.0,7.0,84,0.00,,,0.00,Wunderground v.1.15,2013-01-23 15:10:00,
2013-01-23 09:16:00,17.2,12.9,30.28,WSW,252,7.0,8.0,83,0.00,,,0.00,Wunderground v.1.15,2013-01-23 15:16:00,
2013-01-23 09:22:00,17.9,13.6,30.28,West,262,7.0,9.0,83,0.00,,,0.00,Wunderground v.1.15,2013-01-23 15:22:00,
2013-01-23 09:28:00,18.6,14.3,30.28,West,277,7.0,9.0,83,0.00,,,0.00,Wunderground v.1.15,2013-01-23 15:28:00,
2013-01-23 09:34:00,19.2,14.6,30.28,West,272,6.0,8.0,82,0.00,,,0.00,Wunderground v.1.15,2013-01-23 15:34:00,
2013-01-23 09:39:00,20.0,15.4,30.28,WSW,258,7.0,8.0,82,0.00,,,0.00,Wunderground v.1.15,2013-01-23 15:39:00,
2013-01-23 09:45:00,20.9,16.0,30.28,West,275,7.0,9.0,81,0.00,,,0.00,Wunderground v.1.15,2013-01-23 15:45:00,
2013-01-23 09:51:00,21.6,16.4,30.28,West,279,8.0,10.0,80,0.00,,,0.00,Wunderground v.1.15,2013-01-23 15:51:00,
2013-01-23 09:57:00,22.2,16.4,30.28,WNW,298,7.0,10.0,78,0.00,,,0.00,Wunderground v.1.15,2013-01-23 15:57:00,
2013-01-23 10:02:00,22.5,16.4,30.28,WNW,284,7.0,8.0,77,0.00,,,0.00,Wunderground v.1.15,2013-01-23 16:02:00,
2013-01-23 10:08:00,23.4,17.3,30.29,West,275,8.0,9.0,77,0.00,,,0.00,Wunderground v.1.15,2013-01-23 16:08:00,
2013-01-23 10:14:00,23.8,17.3,30.28,WNW,293,7.0,10.0,76,0.00,,,0.00,Wunderground v.1.15,2013-01-23 16:14:00,
2013-01-23 10:20:00,24.7,17.9,30.28,NW,318,6.0,7.0,75,0.00,,,0.00,Wunderground v.1.15,2013-01-23 16:20:00,
2013-01-23 10:25:00,25.5,18.0,30.28,NW,306,6.0,7.0,73,0.00,,,0.00,Wunderground v.1.15,2013-01-23 16:25:00,
2013-01-23 10:31:00,26.2,18.1,30.28,WNW,295,7.0,8.0,71,0.00,,,0.00,Wunderground v.1.15,2013-01-23 16:31:00,
2013-01-23 10:37:00,26.8,18.3,30.28,WNW,295,8.0,8.0,70,0.00,,,0.00,Wunderground v.1.15,2013-01-23 16:37:00,
2013-01-23 10:43:00,27.2,17.7,30.28,NW,304,8.0,12.0,67,0.00,,,0.00,Wunderground v.1.15,2013-01-23 16:43:00,
2013-01-23 10:48:00,27.1,17.9,30.27,NW,309,9.0,12.0,68,0.00,,,0.00,Wunderground v.1.15,2013-01-23 16:48:00,
2013-01-23 10:54:00,27.3,18.1,30.27,West,279,8.0,9.0,68,0.00,,,0.00,Wunderground v.1.15,2013-01-23 16:54:00,
2013-01-23 10:59:00,28.0,18.8,30.26,West,271,8.0,9.0,68,0.00,,,0.00,Wunderground v.1.15,2013-01-23 16:59:00,
2013-01-23 11:05:00,28.2,18.6,30.26,NW,319,7.0,8.0,67,0.00,,,0.00,Wunderground v.1.15,2013-01-23 17:05:00,
2013-01-23 11:10:00,28.7,19.1,30.26,WNW,284,6.0,9.0,67,0.00,,,0.00,Wunderground v.1.15,2013-01-23 17:10:00,
2013-01-23 11:16:00,29.3,19.0,30.25,West,277,7.0,9.0,65,0.00,,,0.00,Wunderground v.1.15,2013-01-23 17:16:00,
2013-01-23 11:22:00,29.9,19.2,30.26,WNW,303,7.0,8.0,64,0.00,,,0.00,Wunderground v.1.15,2013-01-23 17:22:00,
2013-01-23 11:28:00,30.6,19.5,30.25,West,277,7.0,10.0,63,0.00,,,0.00,Wunderground v.1.15,2013-01-23 17:28:00,
2013-01-23 11:33:00,30.6,19.5,30.25,West,279,6.0,7.0,63,0.00,,,0.00,Wunderground v.1.15,2013-01-23 17:33:00,
2013-01-23 11:39:00,31.2,19.3,30.25,WNW,292,4.0,7.0,61,0.00,,,0.00,Wunderground v.1.15,2013-01-23 17:39:00,
2013-01-23 11:45:00,31.9,19.6,30.24,NW,319,7.0,9.0,60,0.00,,,0.00,Wunderground v.1.15,2013-01-23 17:45:00,
2013-01-23 11:50:00,31.8,19.1,30.24,NNW,330,7.0,8.0,59,0.00,,,0.00,Wunderground v.1.15,2013-01-23 17:50:00,
2013-01-23 11:56:00,32.2,19.9,30.24,NW,323,6.0,9.0,60,0.00,,,0.00,Wunderground v.1.15,2013-01-23 17:56:00,
2013-01-23 12:02:00,32.8,20.0,30.23,NW,306,6.0,6.0,59,0.00,,,0.00,Wunderground v.1.15,2013-01-23 18:02:00,
2013-01-23 12:08:00,33.4,20.6,30.23,WNW,299,7.0,12.0,59,0.00,,,0.00,Wunderground v.1.15,2013-01-23 18:08:00,
2013-01-23 12:14:00,33.6,20.0,30.23,NNW,344,8.0,9.0,57,0.00,,,0.00,Wunderground v.1.15,2013-01-23 18:14:00,
2013-01-23 12:19:00,34.0,20.8,30.22,WNW,285,6.0,10.0,58,0.00,,,0.00,Wunderground v.1.15,2013-01-23 18:19:00,
2013-01-23 12:25:00,34.6,20.9,30.22,NW,309,8.0,11.0,57,0.00,,,0.00,Wunderground v.1.15,2013-01-23 18:25:00,
2013-01-23 12:31:00,34.9,21.2,30.22,NW,320,8.0,9.0,57,0.00,,,0.00,Wunderground v.1.15,2013-01-23 18:31:00,
2013-01-23 12:36:00,35.3,20.7,30.22,NNW,337,7.0,9.0,55,0.00,,,0.00,Wunderground v.1.15,2013-01-23 18:36:00,
2013-01-23 12:41:00,35.5,20.5,30.21,WNW,301,6.0,10.0,54,0.00,,,0.00,Wunderground v.1.15,2013-01-23 18:41:00,
2013-01-23 12:46:00,35.7,20.7,30.21,WNW,295,6.0,13.0,54,0.00,,,0.00,Wunderground v.1.15,2013-01-23 18:46:00,
2013-01-23 12:52:00,35.9,20.4,30.20,NW,306,7.0,10.0,53,0.00,,,0.00,Wunderground v.1.15,2013-01-23 18:52:00,
2013-01-23 12:58:00,36.1,20.6,30.20,NW,318,8.0,12.0,53,0.00,,,0.00,Wunderground v.1.15,2013-01-23 18:58:00,
2013-01-23 13:03:00,36.0,21.4,30.20,WNW,300,8.0,14.0,55,0.00,,,0.00,Wunderground v.1.15,2013-01-23 19:03:00,
2013-01-23 13:10:00,36.6,21.1,30.19,NNW,337,8.0,8.0,53,0.00,,,0.00,Wunderground v.1.15,2013-01-23 19:10:00,
2013-01-23 13:16:00,37.0,21.0,30.19,NNW,333,6.0,10.0,52,0.00,,,0.00,Wunderground v.1.15,2013-01-23 19:16:00,
2013-01-23 13:22:00,36.7,21.2,30.18,WNW,302,7.0,10.0,53,0.00,,,0.00,Wunderground v.1.15,2013-01-23 19:22:00,
2013-01-23 13:28:00,36.9,21.3,30.19,WNW,302,8.0,11.0,53,0.00,,,0.00,Wunderground v.1.15,2013-01-23 19:28:00,
2013-01-23 13:34:00,37.7,21.2,30.19,WNW,303,7.0,9.0,51,0.00,,,0.00,Wunderground v.1.15,2013-01-23 19:34:00,
2013-01-23 13:40:00,38.2,21.6,30.19,NW,323,9.0,9.0,51,0.00,,,0.00,Wunderground v.1.15,2013-01-23 19:40:00,
2013-01-23 13:45:00,38.3,22.6,30.18,NW,308,8.0,11.0,53,0.00,,,0.00,Wunderground v.1.15,2013-01-23 19:45:00,
2013-01-23 13:51:00,38.4,22.3,30.18,WNW,287,8.0,12.0,52,0.00,,,0.00,Wunderground v.1.15,2013-01-23 19:51:00,
2013-01-23 13:57:00,39.0,21.9,30.18,NW,308,8.0,12.0,50,0.00,,,0.00,Wunderground v.1.15,2013-01-23 19:57:00,
2013-01-23 14:03:00,38.7,22.6,30.18,WNW,299,8.0,13.0,52,0.00,,,0.00,Wunderground v.1.15,2013-01-23 20:03:00,
2013-01-23 14:08:00,38.7,22.6,30.18,NW,306,10.0,13.0,52,0.00,,,0.00,Wunderground v.1.15,2013-01-23 20:08:00,
2013-01-23 14:14:00,38.8,21.7,30.18,NW,307,9.0,11.0,50,0.00,,,0.00,Wunderground v.1.15,2013-01-23 20:14:00,
2013-01-23 14:20:00,38.9,21.8,30.18,NW,313,7.0,7.0,50,0.00,,,0.00,Wunderground v.1.15,2013-01-23 20:20:00,
2013-01-23 14:26:00,38.7,22.1,30.18,NW,311,8.0,13.0,51,0.00,,,0.00,Wunderground v.1.15,2013-01-23 20:26:00,
2013-01-23 14:32:00,38.7,22.6,30.18,WNW,296,8.0,9.0,52,0.00,,,0.00,Wunderground v.1.15,2013-01-23 20:32:00,
2013-01-23 14:38:00,39.1,22.5,30.18,NNW,336,6.0,9.0,51,0.00,,,0.00,Wunderground v.1.15,2013-01-23 20:38:00,
2013-01-23 14:43:00,39.6,22.5,30.18,NW,319,5.0,7.0,50,0.00,,,0.00,Wunderground v.1.15,2013-01-23 20:43:00,
2013-01-23 14:49:00,39.8,22.7,30.18,NW,313,5.0,7.0,50,0.00,,,0.00,Wunderground v.1.15,2013-01-23 20:49:00,
2013-01-23 14:55:00,40.3,22.1,30.18,NW,308,5.0,11.0,48,0.00,,,0.00,Wunderground v.1.15,2013-01-23 20:55:00,
2013-01-23 15:01:00,40.1,22.4,30.18,NW,319,7.0,7.0,49,0.00,,,0.00,Wunderground v.1.15,2013-01-23 21:01:00,
2013-01-23 15:07:00,40.2,22.1,30.18,NW,323,7.0,9.0,48,0.00,,,0.00,Wunderground v.1.15,2013-01-23 21:07:00,
2013-01-23 15:12:00,40.3,22.6,30.19,ESE,113,5.0,6.0,49,0.00,,,0.00,Wunderground v.1.15,2013-01-23 21:12:00,
2013-01-23 15:18:00,40.4,23.2,30.19,East,90,3.0,11.0,50,0.00,,,0.00,Wunderground v.1.15,2013-01-23 21:18:00,
2013-01-23 15:25:00,40.4,22.7,30.19,West,265,5.0,8.0,49,0.00,,,0.00,Wunderground v.1.15,2013-01-23 21:25:00,
2013-01-23 15:31:00,40.5,22.8,30.19,WSW,255,5.0,6.0,49,0.00,,,0.00,Wunderground v.1.15,2013-01-23 21:31:00,
2013-01-23 15:36:00,40.3,23.1,30.19,SSW,200,4.0,8.0,50,0.00,,,0.00,Wunderground v.1.15,2013-01-23 21:36:00,
2013-01-23 15:42:00,40.1,23.4,30.19,SSW,211,3.0,4.0,51,0.00,,,0.00,Wunderground v.1.15,2013-01-23 21:42:00,
2013-01-23 15:48:00,40.2,23.5,30.19,SE,130,3.0,4.0,51,0.00,,,0.00,Wunderground v.1.15,2013-01-23 21:48:00,
2013-01-23 15:54:00,40.1,23.4,30.20,ENE,64,3.0,8.0,51,0.00,,,0.00,Wunderground v.1.15,2013-01-23 21:54:00,
2013-01-23 16:00:00,40.0,23.8,30.20,East,79,4.0,4.0,52,0.00,,,0.00,Wunderground v.1.15,2013-01-23 22:00:00,
2013-01-23 16:06:00,39.6,22.9,30.20,ENE,57,5.0,11.0,51,0.00,,,0.00,Wunderground v.1.15,2013-01-23 22:06:00,
2013-01-23 16:12:00,39.3,22.7,30.20,NE,48,7.0,8.0,51,0.00,,,0.00,Wunderground v.1.15,2013-01-23 22:12:00,
2013-01-23 16:17:00,39.2,23.0,30.20,ENE,58,6.0,8.0,52,0.00,,,0.00,Wunderground v.1.15,2013-01-23 22:17:00,
2013-01-23 16:23:00,39.1,22.9,30.21,NE,50,4.0,5.0,52,0.00,,,0.00,Wunderground v.1.15,2013-01-23 22:23:00,
2013-01-23 16:29:00,39.0,22.8,30.21,NE,47,4.0,7.0,52,0.00,,,0.00,Wunderground v.1.15,2013-01-23 22:29:00,
2013-01-23 16:35:00,38.6,22.5,30.21,ENE,71,7.0,12.0,52,0.00,,,0.00,Wunderground v.1.15,2013-01-23 22:35:00,
2013-01-23 16:40:00,38.3,23.1,30.21,NE,55,8.0,8.0,54,0.00,,,0.00,Wunderground v.1.15,2013-01-23 22:40:00,
2013-01-23 16:46:00,37.9,22.3,30.21,NE,54,8.0,10.0,53,0.00,,,0.00,Wunderground v.1.15,2013-01-23 22:46:00,
2013-01-23 16:52:00,37.7,22.5,30.21,NE,40,9.0,10.0,54,0.00,,,0.00,Wunderground v.1.15,2013-01-23 22:52:00,
2013-01-23 16:58:00,37.3,22.6,30.21,ENE,61,8.0,10.0,55,0.00,,,0.00,Wunderground v.1.15,2013-01-23 22:58:00,
2013-01-23 17:03:00,36.8,22.6,30.22,ENE,67,7.0,8.0,56,0.00,,,0.00,Wunderground v.1.15,2013-01-23 23:03:00,
2013-01-23 17:09:00,36.4,22.2,30.22,ENE,57,9.0,10.0,56,0.00,,,0.00,Wunderground v.1.15,2013-01-23 23:09:00,
2013-01-23 17:16:00,35.9,22.1,30.22,ENE,66,9.0,9.0,57,0.00,,,0.00,Wunderground v.1.15,2013-01-23 23:16:00,
2013-01-23 17:22:00,35.4,22.9,30.22,NE,52,7.0,9.0,60,0.00,,,0.00,Wunderground v.1.15,2013-01-23 23:22:00,
2013-01-23 17:27:00,35.0,22.5,30.23,ENE,67,7.0,9.0,60,0.00,,,0.00,Wunderground v.1.15,2013-01-23 23:27:00,
2013-01-23 17:33:00,34.7,21.8,30.23,ENE,66,8.0,11.0,59,0.00,,,0.00,Wunderground v.1.15,2013-01-23 23:33:00,
2013-01-23 17:39:00,34.5,21.2,30.23,NE,44,9.0,11.0,58,0.00,,,0.00,Wunderground v.1.15,2013-01-23 23:39:00,
2013-01-23 17:45:00,34.2,21.4,30.24,NE,44,8.0,11.0,59,0.00,,,0.00,Wunderground v.1.15,2013-01-23 23:45:00,
2013-01-23 17:50:00,34.1,21.3,30.25,ENE,71,8.0,8.0,59,0.00,,,0.00,Wunderground v.1.15,2013-01-23 23:50:00,
2013-01-23 17:56:00,33.7,21.7,30.25,NE,48,7.0,9.0,61,0.00,,,0.00,Wunderground v.1.15,2013-01-23 23:56:00,
2013-01-23 18:02:00,33.7,21.3,30.25,ENE,59,7.0,8.0,60,0.00,,,0.00,Wunderground v.1.15,2013-01-24 00:02:00,
2013-01-23 18:07:00,33.4,21.4,30.26,ENE,57,7.0,8.0,61,0.00,,,0.00,Wunderground v.1.15,2013-01-24 00:07:00,
2013-01-23 18:13:00,33.2,21.6,30.26,East,83,6.0,7.0,62,0.00,,,0.00,Wunderground v.1.15,2013-01-24 00:13:00,
2013-01-23 18:20:00,32.9,21.3,30.26,ENE,74,6.0,10.0,62,0.00,,,0.00,Wunderground v.1.15,2013-01-24 00:20:00,
2013-01-23 18:26:00,32.7,21.5,30.27,ENE,62,7.0,10.0,63,0.00,,,0.00,Wunderground v.1.15,2013-01-24 00:26:00,
2013-01-23 18:31:00,32.5,21.3,30.27,NE,51,8.0,9.0,63,0.00,,,0.00,Wunderground v.1.15,2013-01-24 00:31:00,
2013-01-23 18:36:00,32.3,21.1,30.27,NE,44,8.0,9.0,63,0.00,,,0.00,Wunderground v.1.15,2013-01-24 00:36:00,
2013-01-23 18:42:00,32.0,21.2,30.28,NE,47,7.0,9.0,64,0.00,,,0.00,Wunderground v.1.15,2013-01-24 00:42:00,
2013-01-23 18:48:00,31.7,20.5,30.27,ENE,58,8.0,15.0,63,0.00,,,0.00,Wunderground v.1.15,2013-01-24 00:48:00,
2013-01-23 18:53:00,31.5,20.7,30.28,ENE,57,9.0,10.0,64,0.00,,,0.00,Wunderground v.1.15,2013-01-24 00:53:00,
2013-01-23 18:59:00,31.0,19.5,30.29,ENE,63,9.0,12.0,62,0.00,,,0.00,Wunderground v.1.15,2013-01-24 00:59:00,
2013-01-23 19:06:00,30.4,19.3,30.29,NE,51,10.0,14.0,63,0.00,,,0.00,Wunderground v.1.15,2013-01-24 01:06:00,
2013-01-23 19:12:00,29.9,18.8,30.29,NE,48,10.0,11.0,63,0.00,,,0.00,Wunderground v.1.15,2013-01-24 01:12:00,
2013-01-23 19:18:00,29.7,19.0,30.29,ENE,59,10.0,13.0,64,0.00,,,0.00,Wunderground v.1.15,2013-01-24 01:18:00,
2013-01-23 19:24:00,29.4,18.3,30.29,ENE,71,10.0,16.0,63,0.00,,,0.00,Wunderground v.1.15,2013-01-24 01:24:00,
2013-01-23 19:30:00,29.2,18.9,30.30,ENE,72,10.0,10.0,65,0.00,,,0.00,Wunderground v.1.15,2013-01-24 01:30:00,
2013-01-23 19:36:00,28.9,18.2,30.30,NE,55,10.0,13.0,64,0.00,,,0.00,Wunderground v.1.15,2013-01-24 01:36:00,
2013-01-23 19:41:00,28.8,18.1,30.30,NE,55,9.0,9.0,64,0.00,,,0.00,Wunderground v.1.15,2013-01-24 01:41:00,
2013-01-23 19:47:00,28.6,18.3,30.30,ENE,74,9.0,10.0,65,0.00,,,0.00,Wunderground v.1.15,2013-01-24 01:47:00,
2013-01-23 19:53:00,28.3,18.4,30.31,NE,53,8.0,8.0,66,0.00,,,0.00,Wunderground v.1.15,2013-01-24 01:53:00,
2013-01-23 19:58:00,28.1,18.5,30.31,NE,54,7.0,8.0,67,0.00,,,0.00,Wunderground v.1.15,2013-01-24 01:58:00,
2013-01-23 20:03:00,27.9,18.4,30.31,East,80,7.0,7.0,67,0.00,,,0.00,Wunderground v.1.15,2013-01-24 02:03:00,
2013-01-23 20:09:00,27.7,18.2,30.31,ENE,66,9.0,12.0,67,0.00,,,0.00,Wunderground v.1.15,2013-01-24 02:09:00,
2013-01-23 20:15:00,27.5,17.6,30.32,NNE,15,9.0,12.0,66,0.00,,,0.00,Wunderground v.1.15,2013-01-24 02:15:00,
2013-01-23 20:20:00,27.4,17.2,30.32,NE,55,10.0,10.0,65,0.00,,,0.00,Wunderground v.1.15,2013-01-24 02:20:00,
2013-01-23 20:26:00,27.3,17.4,30.33,North,5,10.0,12.0,66,0.00,,,0.00,Wunderground v.1.15,2013-01-24 02:26:00,
2013-01-23 20:32:00,27.0,16.8,30.33,NE,45,11.0,14.0,65,0.00,,,0.00,Wunderground v.1.15,2013-01-24 02:32:00,
2013-01-23 20:38:00,26.7,16.9,30.33,ENE,57,12.0,19.0,66,0.00,,,0.00,Wunderground v.1.15,2013-01-24 02:38:00,
2013-01-23 20:43:00,26.4,16.9,30.33,ENE,57,11.0,14.0,67,0.00,,,0.00,Wunderground v.1.15,2013-01-24 02:43:00,
2013-01-23 20:49:00,26.2,16.7,30.34,NE,41,12.0,14.0,67,0.00,,,0.00,Wunderground v.1.15,2013-01-24 02:49:00,
2013-01-23 20:55:00,26.0,16.9,30.34,East,89,12.0,19.0,68,0.00,,,0.00,Wunderground v.1.15,2013-01-24 02:55:00,
2013-01-23 21:01:00,25.7,16.6,30.34,NE,51,11.0,12.0,68,0.00,,,0.00,Wunderground v.1.15,2013-01-24 03:01:00,
2013-01-23 21:07:00,25.6,16.8,30.34,ENE,74,10.0,14.0,69,0.00,,,0.00,Wunderground v.1.15,2013-01-24 03:07:00,
2013-01-23 21:13:00,25.4,16.6,30.35,ENE,65,9.0,10.0,69,0.00,,,0.00,Wunderground v.1.15,2013-01-24 03:13:00,
2013-01-23 21:19:00,25.3,16.5,30.35,NE,55,9.0,12.0,69,0.00,,,0.00,Wunderground v.1.15,2013-01-24 03:19:00,
2013-01-23 21:24:00,25.2,16.5,30.36,NE,54,11.0,13.0,69,0.00,,,0.00,Wunderground v.1.15,2013-01-24 03:24:00,
2013-01-23 21:30:00,25.2,16.5,30.36,NE,53,10.0,12.0,69,0.00,,,0.00,Wunderground v.1.15,2013-01-24 03:30:00,
2013-01-23 21:36:00,25.0,16.6,30.36,East,96,9.0,12.0,70,0.00,,,0.00,Wunderground v.1.15,2013-01-24 03:36:00,
2013-01-23 21:42:00,24.9,16.5,30.37,ENE,60,9.0,11.0,70,0.00,,,0.00,Wunderground v.1.15,2013-01-24 03:42:00,
2013-01-23 21:47:00,24.7,15.6,30.37,NE,55,9.0,12.0,68,0.00,,,0.00,Wunderground v.1.15,2013-01-24 03:47:00,
2013-01-23 21:53:00,24.4,14.7,30.38,East,81,9.0,11.0,66,0.00,,,0.00,Wunderground v.1.15,2013-01-24 03:53:00,
2013-01-23 21:59:00,24.2,14.1,30.38,NE,53,8.0,11.0,65,0.00,,,0.00,Wunderground v.1.15,2013-01-24 03:59:00,
2013-01-23 22:05:00,23.8,13.0,30.38,ENE,61,8.0,14.0,63,0.00,,,0.00,Wunderground v.1.15,2013-01-24 04:05:00,
2013-01-23 22:11:00,23.4,12.6,30.39,ENE,72,8.0,9.0,63,0.00,,,0.00,Wunderground v.1.15,2013-01-24 04:11:00,
2013-01-23 22:16:00,23.2,13.2,30.39,NE,49,8.0,9.0,65,0.00,,,0.00,Wunderground v.1.15,2013-01-24 04:16:00,
2013-01-23 22:22:00,22.9,12.2,30.39,NE,37,8.0,11.0,63,0.00,,,0.00,Wunderground v.1.15,2013-01-24 04:22:00,
2013-01-23 22:28:00,22.5,11.8,30.39,NE,34,10.0,14.0,63,0.00,,,0.00,Wunderground v.1.15,2013-01-24 04:28:00,
2013-01-23 22:34:00,22.2,11.5,30.39,ENE,78,11.0,11.0,63,0.00,,,0.00,Wunderground v.1.15,2013-01-24 04:34:00,
2013-01-23 22:39:00,21.9,11.2,30.40,ESE,107,10.0,12.0,63,0.00,,,0.00,Wunderground v.1.15,2013-01-24 04:39:00,
2013-01-23 22:45:00,21.6,10.6,30.41,East,86,8.0,13.0,62,0.00,,,0.00,Wunderground v.1.15,2013-01-24 04:45:00,
2013-01-23 22:50:00,21.3,8.4,30.41,East,81,8.0,10.0,57,0.00,,,0.00,Wunderground v.1.15,2013-01-24 04:50:00,
2013-01-23 22:55:00,21.1,8.2,30.41,ENE,75,9.0,11.0,57,0.00,,,0.00,Wunderground v.1.15,2013-01-24 04:55:00,
2013-01-23 23:01:00,20.8,7.6,30.41,East,80,8.0,9.0,56,0.00,,,0.00,Wunderground v.1.15,2013-01-24 05:01:00,
2013-01-23 23:03:00,20.7,7.5,30.41,ENE,76,8.0,9.0,56,0.00,,,0.00,Wunderground v.1.15,2013-01-24 05:03:00,
2013-01-23 23:04:00,20.7,7.5,30.41,East,81,8.0,10.0,56,0.00,,,0.00,Wunderground v.1.15,2013-01-24 05:04:00,
2013-01-23 23:08:00,20.5,7.7,30.42,ENE,66,8.0,11.0,57,0.00,,,0.00,Wunderground v.1.15,2013-01-24 05:08:00,
2013-01-23 23:14:00,20.3,7.9,30.42,ENE,61,8.0,11.0,58,0.00,,,0.00,Wunderground v.1.15,2013-01-24 05:14:00,
2013-01-23 23:19:00,20.0,7.2,30.42,ENE,57,9.0,11.0,57,0.00,,,0.00,Wunderground v.1.15,2013-01-24 05:19:00,
2013-01-23 23:24:00,19.6,6.4,30.43,East,96,10.0,13.0,56,0.00,,,0.00,Wunderground v.1.15,2013-01-24 05:24:00,
2013-01-23 23:30:00,19.2,6.1,30.44,ENE,76,11.0,11.0,56,0.00,,,0.00,Wunderground v.1.15,2013-01-24 05:30:00,
2013-01-23 23:36:00,18.9,6.2,30.44,East,81,10.0,13.0,57,0.00,,,0.00,Wunderground v.1.15,2013-01-24 05:36:00,
2013-01-23 23:42:00,18.8,6.4,30.45,ENE,73,8.0,11.0,58,0.00,,,0.00,Wunderground v.1.15,2013-01-24 05:42:00,
2013-01-23 23:47:00,18.2,5.1,30.45,East,79,10.0,14.0,56,0.00,,,0.00,Wunderground v.1.15,2013-01-24 05:47:00,
2013-01-23 23:53:00,17.7,5.0,30.45,East,80,11.0,13.0,57,0.00,,,0.00,Wunderground v.1.15,2013-01-24 05:53:00,
2013-01-23 23:58:00,17.5,4.8,30.46,ENE,69,9.0,13.0,57,0.00,,,0.00,Wunderground v.1.15,2013-01-24 05:58:00,